Location: Catstown
(52.4386°N, 7.2633°W)
Time: 04:57:14
(UTC+00:00)

Cosmos 372 Rocket - Pass Details

Date: 18 September 2020
Orbit: 739 x 767 km, 74.1° (Epoch: 20 October)

Event Time Altitude Azimuth Distance (km) Brightness Sun altitude
Rises 20:24:57 0° 203° (SSW) 3,225 7.2 -16.8°
Reaches altitude 10° 20:27:18 10° 203° (SSW) 2,302 6.4 -17.2°
Maximum altitude 20:32:33 89° 113° (ESE) 772 3.9 -17.9°
Drops below altitude 10° 20:37:48 10° 26° (NNE) 2,305 6.5 -18.6°
Sets 20:40:10 0° 26° (NNE) 3,231 7.3 -18.9°
